Time,TemperatureF,DewpointF,PressureIn,WindDirection,WindDirectionDegrees,WindSpeedMPH,WindSpeedGustMPH,Humidity,HourlyPrecipIn,Conditions,Clouds,dailyrainin,SoftwareType,DateUTC
2013-08-16 00:04:00,71.1,58.7,29.12,SSE,158,0.0,0.0,65,0.00,,SKC,0.00,VWS V14.00,2013-08-16 04:04:00,
2013-08-16 00:09:00,71.1,58.7,29.12,SSE,158,0.0,0.0,65,0.00,,SKC,0.00,VWS V14.00,2013-08-16 04:09:00,
2013-08-16 00:19:00,71.1,58.7,29.12,SSE,158,0.0,0.0,65,0.00,,SKC,0.00,VWS V14.00,2013-08-16 04:19:00,
2013-08-16 00:24:00,71.1,58.7,29.12,SSE,158,0.0,0.0,65,0.00,,SKC,0.00,VWS V14.00,2013-08-16 04:24:00,
2013-08-16 00:29:00,70.9,58.5,29.12,SSE,159,0.0,0.0,65,0.00,,SKC,0.00,VWS V14.00,2013-08-16 04:29:00,
2013-08-16 00:34:00,70.7,58.8,29.12,SSE,159,0.0,0.0,66,0.00,,SKC,0.00,VWS V14.00,2013-08-16 04:34:00,
2013-08-16 00:39:00,70.5,58.6,29.12,SSE,159,0.0,0.0,66,0.00,,SKC,0.00,VWS V14.00,2013-08-16 04:39:00,
2013-08-16 00:44:00,70.3,58.5,29.12,SSE,159,0.0,0.0,66,0.00,,SKC,0.00,VWS V14.00,2013-08-16 04:44:00,
2013-08-16 00:49:00,70.2,58.3,29.12,SSE,159,0.0,0.0,66,0.00,,SKC,0.00,VWS V14.00,2013-08-16 04:49:00,
2013-08-16 00:54:00,70.0,58.1,29.12,SSE,159,0.0,0.0,66,0.00,,SKC,0.00,VWS V14.00,2013-08-16 04:54:00,
2013-08-16 00:59:00,70.0,58.1,29.12,SSE,159,0.0,0.0,66,0.00,,SKC,0.00,VWS V14.00,2013-08-16 04:59:00,
2013-08-16 01:04:00,70.0,58.1,29.12,SSE,159,0.0,0.0,66,0.00,,SKC,0.00,VWS V14.00,2013-08-16 05:04:00,
2013-08-16 01:09:00,70.0,58.1,29.12,SSE,159,0.0,0.0,66,0.00,,SKC,0.00,VWS V14.00,2013-08-16 05:09:00,
2013-08-16 01:14:00,70.0,58.5,29.12,SSE,159,0.0,0.0,67,0.00,,SKC,0.00,VWS V14.00,2013-08-16 05:14:00,
2013-08-16 01:19:00,70.0,58.5,29.12,SSE,159,0.0,0.0,67,0.00,,SKC,0.00,VWS V14.00,2013-08-16 05:19:00,
2013-08-16 01:24:00,70.0,58.5,29.12,SSE,159,0.0,0.0,67,0.00,,SKC,0.00,VWS V14.00,2013-08-16 05:24:00,
2013-08-16 01:29:00,70.0,58.5,29.12,SSE,159,0.0,0.0,67,0.00,,SKC,0.00,VWS V14.00,2013-08-16 05:29:00,
2013-08-16 01:35:00,69.8,58.4,29.12,SSE,159,0.0,0.0,67,0.00,,SKC,0.00,VWS V14.00,2013-08-16 05:35:00,
2013-08-16 01:40:00,69.8,58.4,29.12,SSE,159,0.0,0.0,67,0.00,,SKC,0.00,VWS V14.00,2013-08-16 05:40:00,
2013-08-16 01:45:00,69.6,58.2,29.12,SSE,159,0.0,0.0,67,0.00,,SKC,0.00,VWS V14.00,2013-08-16 05:45:00,
2013-08-16 01:50:00,69.6,58.2,29.12,SSE,159,0.0,0.0,67,0.00,,SKC,0.00,VWS V14.00,2013-08-16 05:50:00,
2013-08-16 01:55:00,69.4,58.0,29.12,SSE,159,0.0,0.0,67,0.00,,SKC,0.00,VWS V14.00,2013-08-16 05:55:00,
2013-08-16 02:00:00,69.4,58.0,29.12,SSE,159,0.0,0.0,67,0.00,,SKC,0.00,VWS V14.00,2013-08-16 06:00:00,
2013-08-16 02:05:00,69.4,58.0,29.12,SSE,159,0.0,0.0,67,0.00,,SKC,0.00,VWS V14.00,2013-08-16 06:05:00,
2013-08-16 02:10:00,69.4,58.0,29.12,SSE,159,0.0,0.0,67,0.00,,SKC,0.00,VWS V14.00,2013-08-16 06:10:00,
2013-08-16 02:15:00,69.3,57.8,29.12,SSE,159,0.0,0.0,67,0.00,,SKC,0.00,VWS V14.00,2013-08-16 06:15:00,
2013-08-16 02:20:00,69.1,58.1,29.12,SSE,159,0.0,0.0,68,0.00,,SKC,0.00,VWS V14.00,2013-08-16 06:20:00,
2013-08-16 02:25:00,69.1,58.1,29.12,SSE,159,0.0,0.0,68,0.00,,SKC,0.00,VWS V14.00,2013-08-16 06:25:00,
2013-08-16 02:30:00,68.9,57.5,29.12,SSE,159,0.0,0.0,67,0.00,,SKC,0.00,VWS V14.00,2013-08-16 06:30:00,
2013-08-16 02:35:00,68.7,57.7,29.12,SSE,159,0.0,0.0,68,0.00,,SKC,0.00,VWS V14.00,2013-08-16 06:35:00,
2013-08-16 02:40:00,68.7,57.7,29.12,SSE,159,0.0,0.0,68,0.00,,SKC,0.00,VWS V14.00,2013-08-16 06:40:00,
2013-08-16 02:45:00,68.5,57.6,29.12,SSE,159,0.0,0.0,68,0.00,,SKC,0.00,VWS V14.00,2013-08-16 06:45:00,
2013-08-16 02:50:00,68.5,57.6,29.12,SSE,159,0.0,0.0,68,0.00,,SKC,0.00,VWS V14.00,2013-08-16 06:50:00,
2013-08-16 02:55:00,68.5,57.6,29.12,SSE,159,0.0,0.0,68,0.00,,SKC,0.00,VWS V14.00,2013-08-16 06:55:00,
2013-08-16 03:00:00,68.4,57.4,29.12,SSE,159,0.0,0.0,68,0.00,,SKC,0.00,VWS V14.00,2013-08-16 07:00:00,
2013-08-16 03:05:00,68.2,57.2,29.09,SSE,159,0.0,0.0,68,0.00,,SKC,0.00,VWS V14.00,2013-08-16 07:05:00,
2013-08-16 03:10:00,68.0,57.1,29.09,SSE,159,0.0,0.0,68,0.00,,SKC,0.00,VWS V14.00,2013-08-16 07:10:00,
2013-08-16 03:15:00,67.8,57.3,29.09,SSE,159,0.0,0.0,69,0.00,,SKC,0.00,VWS V14.00,2013-08-16 07:15:00,
2013-08-16 03:20:00,67.6,57.1,29.09,SSE,159,0.0,0.0,69,0.00,,SKC,0.00,VWS V14.00,2013-08-16 07:20:00,
2013-08-16 03:25:00,67.5,57.0,29.09,SSE,159,0.0,0.0,69,0.00,,SKC,0.00,VWS V14.00,2013-08-16 07:25:00,
2013-08-16 03:30:00,67.5,57.0,29.09,SSE,159,0.0,0.0,69,0.00,,SKC,0.00,VWS V14.00,2013-08-16 07:30:00,
2013-08-16 03:35:00,67.5,57.3,29.09,SSE,159,0.0,0.0,70,0.00,,SKC,0.00,VWS V14.00,2013-08-16 07:35:00,
2013-08-16 03:40:00,67.5,57.3,29.09,SSE,159,0.0,0.0,70,0.00,,SKC,0.00,VWS V14.00,2013-08-16 07:40:00,
2013-08-16 03:45:00,67.3,57.2,29.09,SSE,159,0.0,0.0,70,0.00,,SKC,0.00,VWS V14.00,2013-08-16 07:45:00,
2013-08-16 03:50:00,67.3,57.2,29.09,SSE,159,0.0,0.0,70,0.00,,SKC,0.00,VWS V14.00,2013-08-16 07:50:00,
2013-08-16 03:55:00,67.3,57.6,29.09,SSE,159,0.0,0.0,71,0.00,,SKC,0.00,VWS V14.00,2013-08-16 07:55:00,
2013-08-16 04:00:00,67.3,57.6,29.09,SSE,159,0.0,0.0,71,0.00,,SKC,0.00,VWS V14.00,2013-08-16 08:00:00,
2013-08-16 04:05:00,67.5,57.7,29.09,SSE,159,0.0,0.0,71,0.00,,SKC,0.00,VWS V14.00,2013-08-16 08:05:00,
2013-08-16 04:10:00,67.3,57.6,29.09,SSE,159,0.0,0.0,71,0.00,,SKC,0.00,VWS V14.00,2013-08-16 08:10:00,
2013-08-16 04:15:00,67.3,57.6,29.09,SSE,159,0.0,0.0,71,0.00,,SKC,0.00,VWS V14.00,2013-08-16 08:15:00,
2013-08-16 04:20:00,67.1,57.4,29.09,SSE,159,0.0,0.0,71,0.00,,SKC,0.00,VWS V14.00,2013-08-16 08:20:00,
2013-08-16 04:25:00,67.1,57.4,29.09,SSE,159,0.0,0.0,71,0.00,,SKC,0.00,VWS V14.00,2013-08-16 08:25:00,
2013-08-16 04:30:00,67.1,57.4,29.09,SSE,159,0.0,0.0,71,0.00,,SKC,0.00,VWS V14.00,2013-08-16 08:30:00,
2013-08-16 04:35:00,66.9,57.2,29.09,SSE,159,0.0,0.0,71,0.00,,SKC,0.00,VWS V14.00,2013-08-16 08:35:00,
2013-08-16 04:40:00,66.9,57.2,29.09,SSE,159,0.0,0.0,71,0.00,,SKC,0.00,VWS V14.00,2013-08-16 08:40:00,
2013-08-16 04:45:00,66.7,57.0,29.09,SSE,159,0.0,0.0,71,0.00,,SKC,0.00,VWS V14.00,2013-08-16 08:45:00,
2013-08-16 04:50:00,66.7,57.0,29.12,SSE,159,0.0,0.0,71,0.00,,SKC,0.00,VWS V14.00,2013-08-16 08:50:00,
2013-08-16 04:55:00,66.7,57.0,29.12,SSE,159,0.0,0.0,71,0.00,,SKC,0.00,VWS V14.00,2013-08-16 08:55:00,
2013-08-16 05:00:00,66.7,57.0,29.12,SSE,159,0.0,0.0,71,0.00,,SKC,0.00,VWS V14.00,2013-08-16 09:00:00,
2013-08-16 05:05:00,66.7,57.4,29.12,SSE,159,0.0,0.0,72,0.00,,SKC,0.00,VWS V14.00,2013-08-16 09:05:00,
2013-08-16 05:10:00,66.7,57.4,29.12,SSE,159,0.0,0.0,72,0.00,,SKC,0.00,VWS V14.00,2013-08-16 09:10:00,
2013-08-16 05:15:00,66.6,57.3,29.12,SSE,159,0.0,0.0,72,0.00,,SKC,0.00,VWS V14.00,2013-08-16 09:15:00,
2013-08-16 05:20:00,66.6,57.3,29.12,SSE,159,0.0,0.0,72,0.00,,SKC,0.00,VWS V14.00,2013-08-16 09:20:00,
2013-08-16 05:25:00,66.6,57.3,29.12,SSE,159,0.0,0.0,72,0.00,,SKC,0.00,VWS V14.00,2013-08-16 09:25:00,
2013-08-16 05:30:00,66.6,57.3,29.12,SSE,159,0.0,0.0,72,0.00,,SKC,0.00,VWS V14.00,2013-08-16 09:30:00,
2013-08-16 05:35:00,66.6,57.3,29.12,SSE,159,0.0,0.0,72,0.00,,SKC,0.00,VWS V14.00,2013-08-16 09:35:00,
2013-08-16 05:40:00,66.6,57.3,29.12,SSE,159,0.0,0.0,72,0.00,,SKC,0.00,VWS V14.00,2013-08-16 09:40:00,
2013-08-16 05:45:00,66.6,57.7,29.12,SSE,159,0.0,0.0,73,0.00,,SKC,0.00,VWS V14.00,2013-08-16 09:45:00,
2013-08-16 05:50:00,66.7,57.8,29.12,SSE,159,0.0,0.0,73,0.00,,SKC,0.00,VWS V14.00,2013-08-16 09:50:00,
2013-08-16 05:55:00,66.6,57.7,29.12,SSE,159,0.0,0.0,73,0.00,,SKC,0.00,VWS V14.00,2013-08-16 09:55:00,
2013-08-16 06:00:00,66.6,57.7,29.12,SSE,159,0.0,0.0,73,0.00,,SKC,0.00,VWS V14.00,2013-08-16 10:00:00,
2013-08-16 06:05:00,66.6,57.7,29.12,SSE,159,0.0,0.0,73,0.00,,SKC,0.00,VWS V14.00,2013-08-16 10:05:00,
2013-08-16 06:10:00,66.7,57.8,29.12,SSE,159,0.0,0.0,73,0.00,,SKC,0.00,VWS V14.00,2013-08-16 10:10:00,
2013-08-16 06:15:00,66.7,57.8,29.12,SSE,159,0.0,0.0,73,0.00,,SKC,0.00,VWS V14.00,2013-08-16 10:15:00,
2013-08-16 06:20:00,66.7,57.8,29.12,SSE,159,0.0,0.0,73,0.00,,SKC,0.00,VWS V14.00,2013-08-16 10:20:00,
2013-08-16 06:25:00,66.7,58.2,29.12,SSE,159,0.0,0.0,74,0.00,,SKC,0.00,VWS V14.00,2013-08-16 10:25:00,
2013-08-16 06:30:00,66.7,58.2,29.12,SSE,159,0.0,0.0,74,0.00,,SKC,0.00,VWS V14.00,2013-08-16 10:30:00,
2013-08-16 06:35:00,66.7,58.2,29.12,SSE,159,0.0,0.0,74,0.00,,SKC,0.00,VWS V14.00,2013-08-16 10:35:00,
2013-08-16 06:40:00,66.7,58.2,29.12,SSE,159,0.0,0.0,74,0.00,,SKC,0.00,VWS V14.00,2013-08-16 10:40:00,
2013-08-16 06:45:00,66.7,58.2,29.12,SSE,159,0.0,0.0,74,0.00,,SKC,0.00,VWS V14.00,2013-08-16 10:45:00,
2013-08-16 06:50:00,66.7,58.2,29.12,SSE,159,0.0,0.0,74,0.00,,SKC,0.00,VWS V14.00,2013-08-16 10:50:00,
2013-08-16 06:55:00,66.7,58.2,29.12,SSE,159,0.0,0.0,74,0.00,,SKC,0.00,VWS V14.00,2013-08-16 10:55:00,
2013-08-16 07:00:00,66.7,58.6,29.12,SSE,159,0.0,0.0,75,0.00,,SKC,0.00,VWS V14.00,2013-08-16 11:00:00,
2013-08-16 07:05:00,66.7,58.6,29.12,SSE,159,0.0,0.0,75,0.00,,SKC,0.00,VWS V14.00,2013-08-16 11:05:00,
2013-08-16 07:11:00,66.7,58.6,29.12,SSE,158,0.0,0.0,75,0.00,,SKC,0.00,VWS V14.00,2013-08-16 11:11:00,
2013-08-16 07:16:00,66.7,58.6,29.12,SSE,159,0.0,0.0,75,0.00,,SKC,0.00,VWS V14.00,2013-08-16 11:16:00,
2013-08-16 07:21:00,66.9,58.8,29.15,SSE,159,0.0,0.0,75,0.00,,SKC,0.00,VWS V14.00,2013-08-16 11:21:00,
2013-08-16 07:26:00,66.9,58.8,29.15,SSE,159,0.0,0.0,75,0.00,,SKC,0.00,VWS V14.00,2013-08-16 11:26:00,
2013-08-16 07:31:00,67.1,58.9,29.15,SSE,159,0.0,0.0,75,0.00,,SKC,0.00,VWS V14.00,2013-08-16 11:31:00,
2013-08-16 07:36:00,67.3,59.5,29.15,SSE,159,0.0,0.0,76,0.00,,SKC,0.00,VWS V14.00,2013-08-16 11:36:00,
2013-08-16 07:41:00,67.3,59.5,29.15,SSE,159,0.0,0.0,76,0.00,,SKC,0.00,VWS V14.00,2013-08-16 11:41:00,
2013-08-16 07:46:00,67.5,59.6,29.15,SSE,159,0.0,0.0,76,0.00,,SKC,0.00,VWS V14.00,2013-08-16 11:46:00,
2013-08-16 07:51:00,67.5,59.6,29.12,SSE,159,0.0,0.0,76,0.00,,SKC,0.00,VWS V14.00,2013-08-16 11:51:00,
2013-08-16 07:56:00,67.6,59.8,29.12,SSE,159,0.0,0.0,76,0.00,,SKC,0.00,VWS V14.00,2013-08-16 11:56:00,
2013-08-16 08:01:00,67.8,60.0,29.12,SSE,159,0.0,0.0,76,0.00,,SKC,0.00,VWS V14.00,2013-08-16 12:01:00,
2013-08-16 08:06:00,67.8,60.0,29.12,SSE,159,0.0,0.0,76,0.00,,SKC,0.00,VWS V14.00,2013-08-16 12:06:00,
2013-08-16 08:11:00,68.0,60.2,29.12,SSE,159,0.0,0.0,76,0.00,,SKC,0.00,VWS V14.00,2013-08-16 12:11:00,
2013-08-16 08:16:00,68.2,60.3,29.12,SSE,159,0.0,0.0,76,0.00,,SKC,0.00,VWS V14.00,2013-08-16 12:16:00,
2013-08-16 08:21:00,68.4,60.5,29.15,SSE,159,0.0,0.0,76,0.00,,SKC,0.00,VWS V14.00,2013-08-16 12:21:00,
2013-08-16 08:26:00,68.5,60.7,29.15,SSE,159,0.0,0.0,76,0.00,,SKC,0.00,VWS V14.00,2013-08-16 12:26:00,
2013-08-16 08:31:00,68.5,60.7,29.15,NNE,28,0.0,0.0,76,0.00,,SKC,0.00,VWS V14.00,2013-08-16 12:31:00,
2013-08-16 08:36:00,68.7,60.9,29.15,NNE,28,0.0,0.0,76,0.00,,SKC,0.00,VWS V14.00,2013-08-16 12:36:00,
2013-08-16 08:41:00,68.9,61.4,29.15,NNE,28,0.0,0.0,77,0.00,,SKC,0.00,VWS V14.00,2013-08-16 12:41:00,
2013-08-16 08:46:00,69.1,61.6,29.15,NNE,28,0.0,0.0,77,0.00,,SKC,0.00,VWS V14.00,2013-08-16 12:46:00,
2013-08-16 08:51:00,69.3,61.8,29.15,NNE,28,0.0,0.0,77,0.00,,SKC,0.00,VWS V14.00,2013-08-16 12:51:00,
2013-08-16 08:56:00,69.4,61.9,29.15,NNE,28,0.0,0.0,77,0.00,,SKC,0.00,VWS V14.00,2013-08-16 12:56:00,
2013-08-16 09:01:00,69.6,62.1,29.15,NNE,28,0.0,0.0,77,0.00,,SKC,0.00,VWS V14.00,2013-08-16 13:01:00,
2013-08-16 09:06:00,70.0,62.5,29.15,NE,35,0.0,0.0,77,0.00,,SKC,0.00,VWS V14.00,2013-08-16 13:06:00,
2013-08-16 09:11:00,70.3,62.8,29.15,NE,35,0.0,0.0,77,0.00,,SKC,0.00,VWS V14.00,2013-08-16 13:11:00,
2013-08-16 09:16:00,70.5,63.0,29.15,NE,35,0.0,0.0,77,0.00,,SKC,0.00,VWS V14.00,2013-08-16 13:16:00,
2013-08-16 09:21:00,70.7,63.1,29.15,NE,35,0.0,0.0,77,0.00,,SKC,0.00,VWS V14.00,2013-08-16 13:21:00,
2013-08-16 09:26:00,70.9,63.3,29.15,NE,35,0.0,0.0,77,0.00,,SKC,0.00,VWS V14.00,2013-08-16 13:26:00,
2013-08-16 09:31:00,71.1,63.5,29.15,NE,35,0.0,0.0,77,0.00,,SKC,0.00,VWS V14.00,2013-08-16 13:31:00,
2013-08-16 09:36:00,71.2,63.3,29.12,ENE,74,0.0,0.0,76,0.00,,SKC,0.00,VWS V14.00,2013-08-16 13:36:00,
2013-08-16 09:41:00,71.4,63.5,29.12,ENE,74,0.0,0.0,76,0.00,,SKC,0.00,VWS V14.00,2013-08-16 13:41:00,
2013-08-16 09:46:00,71.2,63.3,29.12,NNE,30,0.0,3.1,76,0.00,,SKC,0.00,VWS V14.00,2013-08-16 13:46:00,
2013-08-16 09:51:00,71.4,63.1,29.12,NE,42,0.0,0.0,75,0.00,,SKC,0.00,VWS V14.00,2013-08-16 13:51:00,
2013-08-16 09:56:00,71.4,63.1,29.12,NNE,31,0.0,3.6,75,0.00,,SKC,0.00,VWS V14.00,2013-08-16 13:56:00,
2013-08-16 10:01:00,71.8,63.1,29.12,NNE,31,0.0,0.0,74,0.00,,SKC,0.00,VWS V14.00,2013-08-16 14:01:00,
2013-08-16 10:06:00,71.8,63.1,29.15,SSE,149,0.0,0.0,74,0.00,,SKC,0.00,VWS V14.00,2013-08-16 14:06:00,
2013-08-16 10:11:00,71.8,62.7,29.15,SSE,149,0.0,0.0,73,0.00,,SKC,0.00,VWS V14.00,2013-08-16 14:11:00,
2013-08-16 10:16:00,72.0,62.8,29.15,SSE,149,0.0,0.0,73,0.00,,SKC,0.00,VWS V14.00,2013-08-16 14:16:00,
2013-08-16 10:21:00,72.0,62.8,29.15,NE,39,0.0,0.0,73,0.00,,SKC,0.00,VWS V14.00,2013-08-16 14:21:00,
2013-08-16 10:26:00,72.1,63.0,29.15,NE,39,0.0,0.0,73,0.00,,SKC,0.00,VWS V14.00,2013-08-16 14:26:00,
2013-08-16 10:31:00,72.1,63.0,29.15,NE,39,0.0,0.0,73,0.00,,SKC,0.00,VWS V14.00,2013-08-16 14:31:00,
2013-08-16 10:36:00,72.0,62.8,29.15,NE,39,0.0,0.0,73,0.00,,SKC,0.00,VWS V14.00,2013-08-16 14:36:00,
2013-08-16 10:41:00,71.8,62.3,29.15,NE,39,0.0,0.0,72,0.00,,SKC,0.00,VWS V14.00,2013-08-16 14:41:00,
2013-08-16 10:46:00,71.8,62.3,29.15,NE,39,0.0,0.0,72,0.00,,SKC,0.00,VWS V14.00,2013-08-16 14:46:00,
2013-08-16 10:51:00,71.6,62.1,29.15,NE,39,0.0,0.0,72,0.00,,SKC,0.00,VWS V14.00,2013-08-16 14:51:00,
2013-08-16 10:56:00,71.6,62.1,29.15,NE,39,0.0,0.0,72,0.00,,SKC,0.00,VWS V14.00,2013-08-16 14:56:00,
2013-08-16 11:01:00,71.8,62.3,29.15,NE,39,0.0,0.0,72,0.00,,SKC,0.00,VWS V14.00,2013-08-16 15:01:00,
2013-08-16 11:06:00,71.8,62.3,29.15,NE,39,0.0,0.0,72,0.00,,SKC,0.00,VWS V14.00,2013-08-16 15:06:00,
2013-08-16 11:11:00,72.0,62.5,29.15,East,91,0.0,0.0,72,0.00,,SKC,0.00,VWS V14.00,2013-08-16 15:11:00,
2013-08-16 11:16:00,72.3,62.4,29.15,ENE,71,0.0,0.0,71,0.00,,SKC,0.00,VWS V14.00,2013-08-16 15:16:00,
2013-08-16 11:21:00,72.9,62.9,29.15,SE,124,0.0,0.0,71,0.00,,SKC,0.00,VWS V14.00,2013-08-16 15:21:00,
2013-08-16 11:26:00,73.6,63.2,29.15,NE,35,0.0,0.0,70,0.00,,SKC,0.00,VWS V14.00,2013-08-16 15:26:00,
2013-08-16 11:31:00,74.1,63.7,29.15,SSW,209,0.0,0.0,70,0.00,,SKC,0.00,VWS V14.00,2013-08-16 15:31:00,
2013-08-16 11:36:00,75.0,65.0,29.15,NW,317,0.0,0.0,71,0.00,,SKC,0.00,VWS V14.00,2013-08-16 15:36:00,
2013-08-16 11:41:00,75.4,64.9,29.15,SW,218,0.0,3.1,70,0.00,,SKC,0.00,VWS V14.00,2013-08-16 15:41:00,
2013-08-16 11:46:00,75.6,64.7,29.15,North,8,0.0,3.1,69,0.00,,SKC,0.00,VWS V14.00,2013-08-16 15:46:00,
2013-08-16 11:51:00,75.7,64.9,29.15,SSW,193,0.0,0.0,69,0.00,,SKC,0.00,VWS V14.00,2013-08-16 15:51:00,
2013-08-16 11:56:00,76.1,64.8,29.15,NW,310,0.0,0.0,68,0.00,,SKC,0.00,VWS V14.00,2013-08-16 15:56:00,
2013-08-16 12:01:00,76.5,65.1,29.15,WNW,292,0.0,0.0,68,0.00,,SKC,0.00,VWS V14.00,2013-08-16 16:01:00,
2013-08-16 12:06:00,76.5,64.7,29.15,ENE,72,0.0,0.0,67,0.00,,SKC,0.00,VWS V14.00,2013-08-16 16:06:00,
2013-08-16 12:11:00,76.3,64.5,29.15,NNE,32,0.0,0.0,67,0.00,,SKC,0.00,VWS V14.00,2013-08-16 16:11:00,
2013-08-16 12:16:00,76.6,64.4,29.15,SE,135,0.0,0.0,66,0.00,,SKC,0.00,VWS V14.00,2013-08-16 16:16:00,
2013-08-16 12:21:00,76.5,64.3,29.15,SSE,147,0.0,0.0,66,0.00,,SKC,0.00,VWS V14.00,2013-08-16 16:21:00,
2013-08-16 12:26:00,76.1,63.5,29.15,SW,232,0.0,3.6,65,0.00,,SKC,0.00,VWS V14.00,2013-08-16 16:26:00,
2013-08-16 12:31:00,75.7,63.2,29.15,ENE,76,0.0,0.0,65,0.00,,SKC,0.00,VWS V14.00,2013-08-16 16:31:00,
2013-08-16 12:36:00,75.7,63.2,29.12,ENE,76,0.0,0.0,65,0.00,,SKC,0.00,VWS V14.00,2013-08-16 16:36:00,
2013-08-16 12:41:00,76.1,63.5,29.12,East,90,0.0,0.0,65,0.00,,SKC,0.00,VWS V14.00,2013-08-16 16:41:00,
2013-08-16 12:46:00,76.3,63.2,29.12,ESE,117,0.0,0.0,64,0.00,,SKC,0.00,VWS V14.00,2013-08-16 16:46:00,
2013-08-16 12:51:00,76.3,63.2,29.15,NNE,26,0.0,3.6,64,0.00,,SKC,0.00,VWS V14.00,2013-08-16 16:51:00,
2013-08-16 12:57:00,76.5,62.9,29.15,NNE,26,0.0,3.6,63,0.00,,SKC,0.00,VWS V14.00,2013-08-16 16:57:00,
2013-08-16 13:02:00,76.5,62.9,29.15,NNE,27,0.0,0.0,63,0.00,,SKC,0.00,VWS V14.00,2013-08-16 17:02:00,
2013-08-16 13:07:00,76.8,63.3,29.12,NE,40,0.0,0.0,63,0.00,,SKC,0.00,VWS V14.00,2013-08-16 17:07:00,
2013-08-16 13:12:00,76.8,63.3,29.12,NE,40,0.0,0.0,63,0.00,,SKC,0.00,VWS V14.00,2013-08-16 17:12:00,
2013-08-16 13:17:00,77.5,64.0,29.12,NE,40,0.0,0.0,63,0.00,,SKC,0.00,VWS V14.00,2013-08-16 17:17:00,
2013-08-16 13:22:00,78.1,64.5,29.12,NE,52,0.0,2.7,63,0.00,,SKC,0.00,VWS V14.00,2013-08-16 17:22:00,
2013-08-16 13:27:00,78.3,63.7,29.12,NNE,15,0.0,2.7,61,0.00,,SKC,0.00,VWS V14.00,2013-08-16 17:27:00,
2013-08-16 13:32:00,79.7,65.5,29.12,NNE,15,0.0,0.0,62,0.00,,SKC,0.00,VWS V14.00,2013-08-16 17:32:00,
2013-08-16 13:37:00,81.0,65.8,29.12,North,11,0.0,0.0,60,0.00,,SKC,0.00,VWS V14.00,2013-08-16 17:37:00,
2013-08-16 13:42:00,80.4,64.8,29.12,SW,233,0.0,0.0,59,0.00,,SKC,0.00,VWS V14.00,2013-08-16 17:42:00,
2013-08-16 13:47:00,79.9,64.3,29.12,ENE,57,0.0,0.0,59,0.00,,SKC,0.00,VWS V14.00,2013-08-16 17:47:00,
2013-08-16 13:52:00,79.7,64.1,29.12,North,353,0.0,0.0,59,0.00,,SKC,0.00,VWS V14.00,2013-08-16 17:52:00,
2013-08-16 13:57:00,79.5,64.0,29.12,North,353,0.0,0.0,59,0.00,,SKC,0.00,VWS V14.00,2013-08-16 17:57:00,
2013-08-16 14:02:00,79.2,63.1,29.12,SW,226,0.0,0.0,58,0.00,,SKC,0.00,VWS V14.00,2013-08-16 18:02:00,
2013-08-16 14:07:00,78.8,62.3,29.12,NE,38,0.0,3.6,57,0.00,,SKC,0.00,VWS V14.00,2013-08-16 18:07:00,
2013-08-16 14:12:00,78.3,62.3,29.12,NNE,20,0.0,0.0,58,0.00,,SKC,0.00,VWS V14.00,2013-08-16 18:12:00,
2013-08-16 14:17:00,77.7,61.3,29.12,NNE,20,0.0,0.0,57,0.00,,SKC,0.00,VWS V14.00,2013-08-16 18:17:00,
2013-08-16 14:22:00,77.4,61.4,29.12,SE,129,0.0,0.0,58,0.00,,SKC,0.00,VWS V14.00,2013-08-16 18:22:00,
2013-08-16 14:27:00,77.2,61.3,29.12,SSE,158,0.0,0.0,58,0.00,,SKC,0.00,VWS V14.00,2013-08-16 18:27:00,
2013-08-16 14:32:00,77.2,61.3,29.12,NE,55,0.0,0.0,58,0.00,,SKC,0.00,VWS V14.00,2013-08-16 18:32:00,
2013-08-16 14:37:00,77.5,61.6,29.12,NE,55,0.0,0.0,58,0.00,,SKC,0.00,VWS V14.00,2013-08-16 18:37:00,
2013-08-16 14:42:00,77.7,61.8,29.12,NE,55,0.0,0.0,58,0.00,,SKC,0.00,VWS V14.00,2013-08-16 18:42:00,
2013-08-16 14:47:00,77.9,62.4,29.12,SW,227,0.0,0.0,59,0.00,,SKC,0.00,VWS V14.00,2013-08-16 18:47:00,
2013-08-16 14:52:00,77.9,62.0,29.12,SW,227,0.0,0.0,58,0.00,,SKC,0.00,VWS V14.00,2013-08-16 18:52:00,
2013-08-16 14:57:00,78.1,61.6,29.12,North,357,2.7,3.6,57,0.00,,SKC,0.00,VWS V14.00,2013-08-16 18:57:00,
2013-08-16 15:02:00,78.6,61.6,29.12,NNE,27,0.0,2.2,56,0.00,,SKC,0.00,VWS V14.00,2013-08-16 19:02:00,
2013-08-16 15:07:00,78.8,62.3,29.12,North,10,0.0,2.2,57,0.00,,SKC,0.00,VWS V14.00,2013-08-16 19:07:00,
2013-08-16 15:12:00,79.0,61.5,29.12,NNE,24,2.7,2.7,55,0.00,,SKC,0.00,VWS V14.00,2013-08-16 19:12:00,
2013-08-16 15:17:00,78.8,60.8,29.12,NE,39,0.0,5.4,54,0.00,,SKC,0.00,VWS V14.00,2013-08-16 19:17:00,
2013-08-16 15:22:00,78.8,61.3,29.12,NE,39,0.0,0.0,55,0.00,,SKC,0.00,VWS V14.00,2013-08-16 19:22:00,
2013-08-16 15:27:00,78.8,61.3,29.12,NE,40,0.0,3.1,55,0.00,,SKC,0.00,VWS V14.00,2013-08-16 19:27:00,
2013-08-16 15:32:00,78.8,60.8,29.12,NE,35,0.0,0.0,54,0.00,,SKC,0.00,VWS V14.00,2013-08-16 19:32:00,
2013-08-16 15:37:00,78.8,60.8,29.09,NE,35,0.0,0.0,54,0.00,,SKC,0.00,VWS V14.00,2013-08-16 19:37:00,
2013-08-16 15:42:00,79.2,61.1,29.09,NE,35,0.0,0.0,54,0.00,,SKC,0.00,VWS V14.00,2013-08-16 19:42:00,
2013-08-16 15:47:00,79.2,60.6,29.09,NE,40,3.2,4.0,53,0.00,,SKC,0.00,VWS V14.00,2013-08-16 19:47:00,
2013-08-16 15:52:00,79.0,59.9,29.09,NE,41,0.0,2.7,52,0.00,,SKC,0.00,VWS V14.00,2013-08-16 19:52:00,
2013-08-16 15:57:00,79.2,60.0,29.09,NE,41,0.0,2.7,52,0.00,,SKC,0.00,VWS V14.00,2013-08-16 19:57:00,
2013-08-16 16:02:00,79.5,60.4,29.09,SW,226,2.7,2.7,52,0.00,,SKC,0.00,VWS V14.00,2013-08-16 20:02:00,
2013-08-16 16:07:00,79.7,61.1,29.09,SW,215,3.8,4.9,53,0.00,,SKC,0.00,VWS V14.00,2013-08-16 20:07:00,
2013-08-16 16:12:00,79.7,61.1,29.09,SSW,211,3.2,3.6,53,0.00,,SKC,0.00,VWS V14.00,2013-08-16 20:12:00,
2013-08-16 16:17:00,79.9,61.2,29.09,SW,221,0.0,3.6,53,0.00,,SKC,0.00,VWS V14.00,2013-08-16 20:17:00,
2013-08-16 16:22:00,80.1,61.4,29.09,SW,221,0.0,0.0,53,0.00,,SKC,0.00,VWS V14.00,2013-08-16 20:22:00,
2013-08-16 16:27:00,80.1,60.3,29.09,NE,36,0.0,3.6,51,0.00,,SKC,0.00,VWS V14.00,2013-08-16 20:27:00,
2013-08-16 16:32:00,79.9,60.2,29.09,NE,36,0.0,3.6,51,0.00,,SKC,0.00,VWS V14.00,2013-08-16 20:32:00,
2013-08-16 16:37:00,79.3,59.7,29.09,NE,36,0.0,3.6,51,0.00,,SKC,0.00,VWS V14.00,2013-08-16 20:37:00,
2013-08-16 16:42:00,79.2,59.5,29.09,NNE,21,0.0,0.0,51,0.00,,SKC,0.00,VWS V14.00,2013-08-16 20:42:00,
2013-08-16 16:47:00,79.0,59.3,29.09,SW,224,0.0,0.0,51,0.00,,SKC,0.00,VWS V14.00,2013-08-16 20:47:00,
2013-08-16 16:52:00,79.2,59.5,29.09,NNE,24,0.0,0.0,51,0.00,,SKC,0.00,VWS V14.00,2013-08-16 20:52:00,
2013-08-16 16:57:00,79.2,58.9,29.09,North,11,2.7,3.1,50,0.00,,SKC,0.00,VWS V14.00,2013-08-16 20:57:00,
2013-08-16 17:02:00,79.0,58.8,29.09,NNE,20,0.0,0.0,50,0.00,,SKC,0.00,VWS V14.00,2013-08-16 21:02:00,
2013-08-16 17:07:00,79.2,59.5,29.09,NNE,20,0.0,0.0,51,0.00,,SKC,0.00,VWS V14.00,2013-08-16 21:07:00,
2013-08-16 17:12:00,79.0,59.3,29.09,NNE,20,0.0,0.0,51,0.00,,SKC,0.00,VWS V14.00,2013-08-16 21:12:00,
2013-08-16 17:17:00,78.6,59.5,29.09,NNE,20,0.0,0.0,52,0.00,,SKC,0.00,VWS V14.00,2013-08-16 21:17:00,
2013-08-16 17:22:00,78.3,59.7,29.09,NNE,20,0.0,0.0,53,0.00,,SKC,0.00,VWS V14.00,2013-08-16 21:22:00,
2013-08-16 17:27:00,78.1,59.6,29.09,NNE,20,0.0,0.0,53,0.00,,SKC,0.00,VWS V14.00,2013-08-16 21:27:00,
2013-08-16 17:32:00,77.7,59.8,29.09,NNE,20,0.0,0.0,54,0.00,,SKC,0.00,VWS V14.00,2013-08-16 21:32:00,
2013-08-16 17:37:00,77.5,60.1,29.09,NNE,20,0.0,0.0,55,0.00,,SKC,0.00,VWS V14.00,2013-08-16 21:37:00,
2013-08-16 17:42:00,77.4,60.0,29.09,NNE,20,0.0,0.0,55,0.00,,SKC,0.00,VWS V14.00,2013-08-16 21:42:00,
2013-08-16 17:47:00,77.2,59.8,29.09,NNE,20,0.0,0.0,55,0.00,,SKC,0.00,VWS V14.00,2013-08-16 21:47:00,
2013-08-16 17:52:00,77.2,60.3,29.09,NNE,20,0.0,0.0,56,0.00,,SKC,0.00,VWS V14.00,2013-08-16 21:52:00,
2013-08-16 17:57:00,77.2,60.3,29.09,NNE,20,0.0,0.0,56,0.00,,SKC,0.00,VWS V14.00,2013-08-16 21:57:00,
2013-08-16 18:02:00,77.4,61.0,29.09,NNE,20,0.0,0.0,57,0.00,,SKC,0.00,VWS V14.00,2013-08-16 22:02:00,
2013-08-16 18:07:00,77.4,61.0,29.09,NNE,20,0.0,0.0,57,0.00,,SKC,0.00,VWS V14.00,2013-08-16 22:07:00,
2013-08-16 18:12:00,77.4,61.0,29.09,NNE,20,0.0,0.0,57,0.00,,SKC,0.00,VWS V14.00,2013-08-16 22:12:00,
2013-08-16 18:18:00,77.5,61.6,29.09,NNE,20,0.0,0.0,58,0.00,,SKC,0.00,VWS V14.00,2013-08-16 22:18:00,
2013-08-16 18:23:00,77.5,61.6,29.09,NNE,20,0.0,0.0,58,0.00,,SKC,0.00,VWS V14.00,2013-08-16 22:23:00,
2013-08-16 18:28:00,77.5,61.6,29.09,NNE,20,0.0,0.0,58,0.00,,SKC,0.00,VWS V14.00,2013-08-16 22:28:00,
2013-08-16 18:33:00,77.5,62.1,29.09,NNE,20,0.0,0.0,59,0.00,,SKC,0.00,VWS V14.00,2013-08-16 22:33:00,
2013-08-16 18:38:00,77.4,61.9,29.09,NNE,20,0.0,0.0,59,0.00,,SKC,0.00,VWS V14.00,2013-08-16 22:38:00,
2013-08-16 18:43:00,77.2,62.2,29.09,NNE,20,0.0,0.0,60,0.00,,SKC,0.00,VWS V14.00,2013-08-16 22:43:00,
2013-08-16 18:48:00,77.2,62.2,29.09,NNE,20,0.0,0.0,60,0.00,,SKC,0.00,VWS V14.00,2013-08-16 22:48:00,
2013-08-16 18:53:00,77.0,62.1,29.09,NNE,20,0.0,0.0,60,0.00,,SKC,0.00,VWS V14.00,2013-08-16 22:53:00,
2013-08-16 18:58:00,77.2,62.2,29.09,NNE,20,0.0,0.0,60,0.00,,SKC,0.00,VWS V14.00,2013-08-16 22:58:00,
2013-08-16 19:03:00,77.4,62.4,29.09,NNE,20,0.0,0.0,60,0.00,,SKC,0.00,VWS V14.00,2013-08-16 23:03:00,
2013-08-16 19:08:00,77.4,62.4,29.09,NNE,20,0.0,0.0,60,0.00,,SKC,0.00,VWS V14.00,2013-08-16 23:08:00,
2013-08-16 19:13:00,77.2,62.2,29.09,NNE,20,0.0,0.0,60,0.00,,SKC,0.00,VWS V14.00,2013-08-16 23:13:00,
2013-08-16 19:18:00,77.2,62.2,29.09,NNE,20,0.0,0.0,60,0.00,,SKC,0.00,VWS V14.00,2013-08-16 23:18:00,
2013-08-16 19:23:00,77.2,62.7,29.09,NNE,20,0.0,0.0,61,0.00,,SKC,0.00,VWS V14.00,2013-08-16 23:23:00,
2013-08-16 19:28:00,77.0,62.5,29.09,NNE,20,0.0,0.0,61,0.00,,SKC,0.00,VWS V14.00,2013-08-16 23:28:00,
2013-08-16 19:33:00,76.8,62.4,29.09,NNE,20,0.0,0.0,61,0.00,,SKC,0.00,VWS V14.00,2013-08-16 23:33:00,
2013-08-16 19:38:00,76.6,62.2,29.09,NNE,20,0.0,0.0,61,0.00,,SKC,0.00,VWS V14.00,2013-08-16 23:38:00,
2013-08-16 19:43:00,76.5,62.0,29.09,NNE,20,0.0,0.0,61,0.00,,SKC,0.00,VWS V14.00,2013-08-16 23:43:00,
2013-08-16 19:48:00,76.3,61.9,29.09,NNE,20,0.0,0.0,61,0.00,,SKC,0.00,VWS V14.00,2013-08-16 23:48:00,
2013-08-16 19:53:00,76.1,62.2,29.09,NNE,20,0.0,0.0,62,0.00,,SKC,0.00,VWS V14.00,2013-08-16 23:53:00,
2013-08-16 19:58:00,75.9,62.0,29.09,NNE,20,0.0,0.0,62,0.00,,SKC,0.00,VWS V14.00,2013-08-16 23:58:00,
2013-08-16 20:03:00,75.7,61.8,29.09,NNE,20,0.0,0.0,62,0.00,,SKC,0.00,VWS V14.00,2013-08-17 00:03:00,
2013-08-16 20:08:00,75.7,62.3,29.09,NNE,20,0.0,0.0,63,0.00,,SKC,0.00,VWS V14.00,2013-08-17 00:08:00,
2013-08-16 20:13:00,75.6,62.1,29.09,NNE,20,0.0,0.0,63,0.00,,SKC,0.00,VWS V14.00,2013-08-17 00:13:00,
2013-08-16 20:18:00,75.2,61.8,29.09,NNE,20,0.0,0.0,63,0.00,,SKC,0.00,VWS V14.00,2013-08-17 00:18:00,
2013-08-16 20:23:00,75.0,61.6,29.09,NNE,20,0.0,0.0,63,0.00,,SKC,0.00,VWS V14.00,2013-08-17 00:23:00,
2013-08-16 20:28:00,74.8,61.4,29.09,NNE,20,0.0,0.0,63,0.00,,SKC,0.00,VWS V14.00,2013-08-17 00:28:00,
2013-08-16 20:33:00,74.8,61.4,29.09,NNE,20,0.0,0.0,63,0.00,,SKC,0.00,VWS V14.00,2013-08-17 00:33:00,
2013-08-16 20:38:00,74.7,61.7,29.12,NNE,20,0.0,0.0,64,0.00,,SKC,0.00,VWS V14.00,2013-08-17 00:38:00,
2013-08-16 20:43:00,74.5,61.5,29.12,NNE,20,0.0,0.0,64,0.00,,SKC,0.00,VWS V14.00,2013-08-17 00:43:00,
2013-08-16 20:48:00,74.3,61.3,29.12,SE,138,0.0,0.0,64,0.00,,SKC,0.00,VWS V14.00,2013-08-17 00:48:00,
2013-08-16 20:53:00,74.1,61.2,29.12,SE,138,0.0,0.0,64,0.00,,SKC,0.00,VWS V14.00,2013-08-17 00:53:00,
2013-08-16 20:58:00,73.9,61.0,29.12,SE,138,0.0,0.0,64,0.00,,SKC,0.00,VWS V14.00,2013-08-17 00:58:00,
2013-08-16 21:03:00,73.9,61.4,29.12,SE,138,0.0,0.0,65,0.00,,SKC,0.00,VWS V14.00,2013-08-17 01:03:00,
2013-08-16 21:08:00,73.8,61.3,29.12,SE,138,0.0,0.0,65,0.00,,SKC,0.00,VWS V14.00,2013-08-17 01:08:00,
2013-08-16 21:13:00,73.8,61.3,29.12,SE,138,0.0,0.0,65,0.00,,SKC,0.00,VWS V14.00,2013-08-17 01:13:00,
2013-08-16 21:18:00,73.6,61.1,29.12,SE,138,0.0,0.0,65,0.00,,SKC,0.00,VWS V14.00,2013-08-17 01:18:00,
2013-08-16 21:23:00,73.6,61.1,29.12,SE,125,0.0,0.0,65,0.00,,SKC,0.00,VWS V14.00,2013-08-17 01:23:00,
2013-08-16 21:28:00,73.4,61.4,29.12,SSE,147,0.0,0.0,66,0.00,,SKC,0.00,VWS V14.00,2013-08-17 01:28:00,
2013-08-16 21:33:00,73.4,61.4,29.12,SSE,152,0.0,0.0,66,0.00,,SKC,0.00,VWS V14.00,2013-08-17 01:33:00,
2013-08-16 21:38:00,73.2,61.2,29.12,SSE,152,0.0,0.0,66,0.00,,SKC,0.00,VWS V14.00,2013-08-17 01:38:00,
2013-08-16 21:43:00,73.0,61.5,29.12,SSE,152,0.0,0.0,67,0.00,,SKC,0.00,VWS V14.00,2013-08-17 01:43:00,
2013-08-16 21:48:00,73.0,61.5,29.12,SE,128,0.0,2.7,67,0.00,,SKC,0.00,VWS V14.00,2013-08-17 01:48:00,
2013-08-16 21:53:00,72.9,61.3,29.12,SE,124,0.0,0.0,67,0.00,,SKC,0.00,VWS V14.00,2013-08-17 01:53:00,
2013-08-16 21:58:00,72.7,61.1,29.12,SE,143,0.0,0.0,67,0.00,,SKC,0.00,VWS V14.00,2013-08-17 01:58:00,
2013-08-16 22:03:00,72.5,60.9,29.12,SSE,166,0.0,3.1,67,0.00,,SKC,0.00,VWS V14.00,2013-08-17 02:03:00,
2013-08-16 22:08:00,72.5,61.3,29.12,South,171,0.0,3.1,68,0.00,,SKC,0.00,VWS V14.00,2013-08-17 02:08:00,
2013-08-16 22:13:00,72.3,61.2,29.12,ESE,117,2.7,3.6,68,0.00,,SKC,0.00,VWS V14.00,2013-08-17 02:13:00,
2013-08-16 22:18:00,72.3,61.2,29.12,ESE,118,0.0,3.6,68,0.00,,SKC,0.00,VWS V14.00,2013-08-17 02:18:00,
2013-08-16 22:23:00,72.1,61.0,29.15,SE,136,0.0,0.0,68,0.00,,SKC,0.00,VWS V14.00,2013-08-17 02:23:00,
2013-08-16 22:28:00,72.1,61.0,29.15,SE,135,0.0,0.0,68,0.00,,SKC,0.00,VWS V14.00,2013-08-17 02:28:00,
2013-08-16 22:33:00,72.0,60.8,29.15,SE,135,0.0,0.0,68,0.00,,SKC,0.00,VWS V14.00,2013-08-17 02:33:00,
2013-08-16 22:38:00,72.0,60.8,29.15,SE,135,0.0,0.0,68,0.00,,SKC,0.00,VWS V14.00,2013-08-17 02:38:00,
2013-08-16 22:43:00,71.8,61.1,29.15,SSE,166,0.0,0.0,69,0.00,,SKC,0.00,VWS V14.00,2013-08-17 02:43:00,
2013-08-16 22:48:00,71.8,61.1,29.15,SE,134,0.0,0.0,69,0.00,,SKC,0.00,VWS V14.00,2013-08-17 02:48:00,
2013-08-16 22:53:00,71.8,61.1,29.15,SE,134,0.0,0.0,69,0.00,,SKC,0.00,VWS V14.00,2013-08-17 02:53:00,
2013-08-16 22:58:00,71.6,60.9,29.15,SSE,156,0.0,2.7,69,0.00,,SKC,0.00,VWS V14.00,2013-08-17 02:58:00,
2013-08-16 23:03:00,71.6,60.9,29.15,SSE,156,0.0,0.0,69,0.00,,SKC,0.00,VWS V14.00,2013-08-17 03:03:00,
2013-08-16 23:09:00,71.6,60.9,29.15,SE,141,0.0,3.6,69,0.00,,SKC,0.00,VWS V14.00,2013-08-17 03:09:00,
2013-08-16 23:14:00,71.6,60.9,29.15,SE,141,0.0,0.0,69,0.00,,SKC,0.00,VWS V14.00,2013-08-17 03:14:00,
2013-08-16 23:19:00,71.6,60.9,29.15,SE,141,0.0,0.0,69,0.00,,SKC,0.00,VWS V14.00,2013-08-17 03:19:00,
2013-08-16 23:24:00,71.4,61.1,29.15,SSE,165,0.0,0.0,70,0.00,,SKC,0.00,VWS V14.00,2013-08-17 03:24:00,
2013-08-16 23:29:00,71.4,61.1,29.15,SSE,165,0.0,0.0,70,0.00,,SKC,0.00,VWS V14.00,2013-08-17 03:29:00,
2013-08-16 23:34:00,71.4,61.1,29.15,SSE,165,0.0,0.0,70,0.00,,SKC,0.00,VWS V14.00,2013-08-17 03:34:00,
2013-08-16 23:39:00,71.2,61.0,29.15,SSE,165,0.0,0.0,70,0.00,,SKC,0.00,VWS V14.00,2013-08-17 03:39:00,
2013-08-16 23:44:00,71.2,61.0,29.15,SSE,165,0.0,0.0,70,0.00,,SKC,0.00,VWS V14.00,2013-08-17 03:44:00,
2013-08-16 23:49:00,71.1,60.8,29.15,SSE,165,0.0,0.0,70,0.00,,SKC,0.00,VWS V14.00,2013-08-17 03:49:00,
2013-08-16 23:54:00,71.1,60.8,29.15,SSE,165,0.0,0.0,70,0.00,,SKC,0.00,VWS V14.00,2013-08-17 03:54:00,
2013-08-16 23:59:00,71.1,60.8,29.15,SSE,165,0.0,0.0,70,0.00,,SKC,0.00,VWS V14.00,2013-08-17 03:59:00,